Time,TemperatureF,DewpointF,PressureIn,WindDirection,WindDirectionDegrees,WindSpeedMPH,WindSpeedGustMPH,Humidity,HourlyPrecipIn,Conditions,Clouds,dailyrainin,SolarRadiationWatts/m^2,SoftwareType,DateUTC
2013-02-19 00:02:00,34.0,18.0,-100.00,North,0,11.0,18.0,52,0.00,,,0.25,0.000000,,2013-02-19 05:02:00,
2013-02-19 00:33:00,33.0,18.0,-100.00,North,0,10.0,17.0,54,0.00,,,0.25,0.000000,,2013-02-19 05:33:00,
2013-02-19 00:43:00,33.0,18.0,-100.00,North,0,10.0,17.0,54,0.00,,,0.25,0.000000,,2013-02-19 05:43:00,
2013-02-19 00:52:00,33.0,18.0,-100.00,North,0,10.0,17.0,54,0.00,,,0.25,0.000000,,2013-02-19 05:52:00,
2013-02-19 01:03:00,33.0,18.0,-100.00,North,0,10.0,17.0,54,0.00,,,0.25,0.000000,,2013-02-19 06:03:00,
2013-02-19 01:33:00,33.0,18.0,-100.00,North,0,11.0,18.0,53,0.00,,,-99.99,0.000000,,2013-02-19 06:33:00,
2013-02-19 01:42:00,33.0,18.0,-100.00,North,0,11.0,18.0,53,0.00,,,-99.99,0.000000,,2013-02-19 06:42:00,
2013-02-19 01:53:00,33.0,18.0,-100.00,North,0,11.0,18.0,53,0.00,,,-99.99,0.000000,,2013-02-19 06:53:00,
2013-02-19 02:02:00,33.0,18.0,-100.00,North,0,11.0,18.0,53,0.00,,,-99.99,0.000000,,2013-02-19 07:02:00,
2013-02-19 02:32:00,35.0,20.0,-100.00,North,0,12.0,20.0,53,0.00,,,0.25,0.000000,,2013-02-19 07:32:00,
2013-02-19 02:42:00,35.0,20.0,-100.00,North,0,12.0,20.0,53,0.00,,,0.25,0.000000,,2013-02-19 07:42:00,
2013-02-19 02:52:00,35.0,20.0,-100.00,North,0,12.0,20.0,53,0.00,,,0.25,0.000000,,2013-02-19 07:52:00,
2013-02-19 03:02:00,35.0,20.0,-100.00,North,0,12.0,20.0,53,0.00,,,0.25,0.000000,,2013-02-19 08:02:00,
2013-02-19 03:32:00,36.0,20.0,-100.00,North,0,12.0,20.0,52,0.00,,,0.25,0.000000,,2013-02-19 08:32:00,
2013-02-19 03:42:00,36.0,20.0,-100.00,North,0,12.0,20.0,52,0.00,,,0.25,0.000000,,2013-02-19 08:42:00,
2013-02-19 03:52:00,36.0,20.0,-100.00,North,0,12.0,20.0,52,0.00,,,0.25,0.000000,,2013-02-19 08:52:00,
2013-02-19 04:02:00,36.0,20.0,-100.00,North,0,12.0,20.0,52,0.00,,,0.25,0.000000,,2013-02-19 09:02:00,
2013-02-19 04:32:00,35.0,20.0,-100.00,North,0,9.0,18.0,54,0.00,,,0.25,0.000000,,2013-02-19 09:32:00,
2013-02-19 04:42:00,35.0,20.0,-100.00,North,0,9.0,18.0,54,0.00,,,0.25,0.000000,,2013-02-19 09:42:00,
2013-02-19 04:53:00,35.0,20.0,-100.00,North,0,9.0,18.0,54,0.00,,,0.25,0.000000,,2013-02-19 09:53:00,
2013-02-19 05:02:00,35.0,20.0,-100.00,North,0,9.0,18.0,54,0.00,,,0.25,0.000000,,2013-02-19 10:02:00,
2013-02-19 05:32:00,34.0,32.0,-100.00,North,0,10.0,17.0,91,0.05,,,-99.99,0.000000,,2013-02-19 10:32:00,
2013-02-19 05:42:00,34.0,32.0,-100.00,North,0,10.0,17.0,91,0.05,,,-99.99,0.000000,,2013-02-19 10:42:00,
2013-02-19 05:52:00,34.0,32.0,-100.00,North,0,10.0,17.0,91,0.05,,,-99.99,0.000000,,2013-02-19 10:52:00,
2013-02-19 06:01:00,34.0,32.0,-100.00,North,0,10.0,17.0,91,0.05,,,-99.99,0.000000,,2013-02-19 11:01:00,
2013-02-19 06:32:00,35.0,30.0,-100.00,North,0,11.0,22.0,82,0.00,,,0.30,0.000000,,2013-02-19 11:32:00,
2013-02-19 06:42:00,35.0,30.0,-100.00,North,0,11.0,22.0,82,0.00,,,0.30,0.000000,,2013-02-19 11:42:00,
2013-02-19 06:52:00,35.0,30.0,-100.00,North,0,11.0,22.0,82,0.00,,,0.30,0.000000,,2013-02-19 11:52:00,
2013-02-19 07:02:00,35.0,30.0,-100.00,North,0,11.0,22.0,82,0.00,,,0.30,0.000000,,2013-02-19 12:02:00,
2013-02-19 07:33:00,34.0,32.0,-100.00,North,0,12.0,25.0,91,0.01,,,0.31,0.000000,,2013-02-19 12:33:00,
2013-02-19 07:42:00,34.0,32.0,-100.00,North,0,12.0,25.0,91,0.01,,,0.31,0.000000,,2013-02-19 12:42:00,
2013-02-19 07:53:00,34.0,32.0,-100.00,North,0,12.0,25.0,91,0.01,,,0.31,0.000000,,2013-02-19 12:53:00,
2013-02-19 08:02:00,34.0,32.0,-100.00,North,0,12.0,25.0,91,0.01,,,0.31,0.000000,,2013-02-19 13:02:00,
2013-02-19 08:32:00,34.0,33.0,-100.00,North,0,11.0,23.0,97,0.01,,,0.32,19.000000,,2013-02-19 13:32:00,
2013-02-19 08:42:00,34.0,33.0,-100.00,North,0,11.0,23.0,97,0.01,,,0.32,19.000000,,2013-02-19 13:42:00,
2013-02-19 08:52:00,34.0,33.0,-100.00,North,0,11.0,23.0,97,0.01,,,0.32,19.000000,,2013-02-19 13:52:00,
2013-02-19 09:02:00,34.0,33.0,-100.00,North,0,11.0,23.0,97,0.01,,,0.32,19.000000,,2013-02-19 14:02:00,
2013-02-19 09:33:00,36.0,34.0,-100.00,North,0,12.0,22.0,94,0.01,,,0.33,62.000000,,2013-02-19 14:33:00,
2013-02-19 09:42:00,36.0,34.0,-100.00,North,0,12.0,22.0,94,0.01,,,0.33,62.000000,,2013-02-19 14:42:00,
2013-02-19 09:52:00,36.0,34.0,-100.00,North,0,12.0,22.0,94,0.01,,,0.33,62.000000,,2013-02-19 14:52:00,
2013-02-19 10:02:00,36.0,34.0,-100.00,North,0,12.0,22.0,94,0.01,,,0.33,62.000000,,2013-02-19 15:02:00,
2013-02-19 10:32:00,37.0,35.0,-100.00,North,0,12.0,27.0,92,0.02,,,0.35,51.000000,,2013-02-19 15:32:00,
2013-02-19 10:42:00,37.0,35.0,-100.00,North,0,12.0,27.0,92,0.02,,,0.35,51.000000,,2013-02-19 15:42:00,
2013-02-19 10:52:00,37.0,35.0,-100.00,North,0,12.0,27.0,92,0.02,,,0.35,51.000000,,2013-02-19 15:52:00,
2013-02-19 11:02:00,37.0,35.0,-100.00,North,0,12.0,27.0,92,0.02,,,0.35,51.000000,,2013-02-19 16:02:00,
2013-02-19 12:32:00,38.0,34.0,-100.00,North,0,12.0,26.0,85,-99.99,,,0.29,123.000000,,2013-02-19 17:32:00,
2013-02-19 12:42:00,38.0,34.0,-100.00,North,0,12.0,26.0,85,-99.99,,,0.29,123.000000,,2013-02-19 17:42:00,
2013-02-19 12:52:00,38.0,34.0,-100.00,North,0,12.0,26.0,85,-99.99,,,0.29,123.000000,,2013-02-19 17:52:00,
2013-02-19 13:02:00,38.0,34.0,-100.00,North,0,12.0,26.0,85,-99.99,,,0.29,123.000000,,2013-02-19 18:02:00,
2013-02-19 13:32:00,38.0,35.0,-100.00,North,0,10.0,24.0,88,0.01,,,0.28,161.000000,,2013-02-19 18:32:00,
2013-02-19 13:42:00,38.0,35.0,-100.00,North,0,10.0,24.0,88,0.01,,,0.28,161.000000,,2013-02-19 18:42:00,
2013-02-19 13:52:00,38.0,35.0,-100.00,North,0,10.0,24.0,88,0.01,,,0.28,161.000000,,2013-02-19 18:52:00,
2013-02-19 14:01:00,38.0,35.0,-100.00,North,0,10.0,24.0,88,0.01,,,0.28,161.000000,,2013-02-19 19:01:00,
2013-02-19 14:32:00,31.0,31.0,-100.00,North,0,11.0,21.0,98,0.00,,,0.24,76.000000,,2013-02-19 19:32:00,
2013-02-19 14:42:00,31.0,31.0,-100.00,North,0,11.0,21.0,98,0.00,,,0.24,76.000000,,2013-02-19 19:42:00,
2013-02-19 14:52:00,31.0,31.0,-100.00,North,0,11.0,21.0,98,0.00,,,0.24,76.000000,,2013-02-19 19:52:00,
2013-02-19 15:02:00,31.0,31.0,-100.00,North,0,11.0,21.0,98,0.00,,,0.24,76.000000,,2013-02-19 20:02:00,
2013-02-19 15:32:00,30.0,30.0,-100.00,North,0,12.0,25.0,100,0.00,,,-99.99,38.000000,,2013-02-19 20:32:00,
2013-02-19 15:42:00,30.0,30.0,-100.00,North,0,12.0,25.0,100,0.00,,,-99.99,38.000000,,2013-02-19 20:42:00,
2013-02-19 15:52:00,30.0,30.0,-100.00,North,0,12.0,25.0,100,0.00,,,-99.99,38.000000,,2013-02-19 20:52:00,
2013-02-19 16:02:00,30.0,30.0,-100.00,North,0,12.0,25.0,100,0.00,,,-99.99,38.000000,,2013-02-19 21:02:00,
2013-02-19 16:32:00,29.0,28.0,-100.00,North,0,9.0,24.0,97,0.00,,,0.13,38.000000,,2013-02-19 21:32:00,
2013-02-19 16:42:00,29.0,28.0,-100.00,North,0,9.0,24.0,97,0.00,,,0.13,38.000000,,2013-02-19 21:42:00,
2013-02-19 16:52:00,29.0,28.0,-100.00,North,0,9.0,24.0,97,0.00,,,0.13,38.000000,,2013-02-19 21:52:00,
2013-02-19 17:02:00,29.0,28.0,-100.00,North,0,9.0,24.0,97,0.00,,,0.13,38.000000,,2013-02-19 22:02:00,
2013-02-19 17:32:00,27.0,23.0,-100.00,North,0,7.0,24.0,85,0.00,,,-99.99,19.000000,,2013-02-19 22:32:00,
2013-02-19 17:42:00,27.0,23.0,-100.00,North,0,7.0,24.0,85,0.00,,,-99.99,19.000000,,2013-02-19 22:42:00,
2013-02-19 17:52:00,27.0,23.0,-100.00,North,0,7.0,24.0,85,0.00,,,-99.99,19.000000,,2013-02-19 22:52:00,
2013-02-19 18:01:00,27.0,23.0,-100.00,North,0,7.0,24.0,85,0.00,,,-99.99,19.000000,,2013-02-19 23:01:00,
2013-02-19 18:32:00,25.0,23.0,-100.00,North,0,13.0,27.0,93,0.00,,,0.12,4.000000,,2013-02-19 23:32:00,
2013-02-19 18:42:00,25.0,23.0,-100.00,North,0,13.0,27.0,93,0.00,,,0.12,4.000000,,2013-02-19 23:42:00,
2013-02-19 18:52:00,25.0,23.0,-100.00,North,0,13.0,27.0,93,0.00,,,0.12,4.000000,,2013-02-19 23:52:00,
2013-02-19 19:02:00,25.0,23.0,-100.00,North,0,13.0,27.0,93,0.00,,,0.12,4.000000,,2013-02-20 00:02:00,
2013-02-19 19:32:00,24.0,23.0,-100.00,North,0,13.0,27.0,97,0.00,,,0.12,0.000000,,2013-02-20 00:32:00,
2013-02-19 19:42:00,24.0,23.0,-100.00,North,0,13.0,27.0,97,0.00,,,0.12,0.000000,,2013-02-20 00:42:00,
2013-02-19 19:52:00,24.0,23.0,-100.00,North,0,13.0,27.0,97,0.00,,,0.12,0.000000,,2013-02-20 00:52:00,
2013-02-19 20:02:00,24.0,23.0,-100.00,North,0,13.0,27.0,97,0.00,,,0.12,0.000000,,2013-02-20 01:02:00,
2013-02-19 20:32:00,22.0,20.0,-100.00,North,0,9.0,29.0,92,0.00,,,0.12,0.000000,,2013-02-20 01:32:00,
2013-02-19 20:42:00,22.0,20.0,-100.00,North,0,9.0,29.0,92,0.00,,,0.12,0.000000,,2013-02-20 01:42:00,
2013-02-19 20:52:00,22.0,20.0,-100.00,North,0,9.0,29.0,92,0.00,,,0.12,0.000000,,2013-02-20 01:52:00,
2013-02-19 21:02:00,22.0,20.0,-100.00,North,0,9.0,29.0,92,0.00,,,0.12,0.000000,,2013-02-20 02:02:00,
2013-02-19 21:32:00,20.0,18.0,-100.00,North,0,10.0,25.0,91,0.00,,,0.12,0.000000,,2013-02-20 02:32:00,
2013-02-19 21:42:00,20.0,18.0,-100.00,North,0,10.0,25.0,91,0.00,,,0.12,0.000000,,2013-02-20 02:42:00,
2013-02-19 21:52:00,20.0,18.0,-100.00,North,0,10.0,25.0,91,0.00,,,0.12,0.000000,,2013-02-20 02:52:00,
2013-02-19 22:02:00,20.0,18.0,-100.00,North,0,10.0,25.0,91,0.00,,,0.12,0.000000,,2013-02-20 03:02:00,
2013-02-19 22:32:00,19.0,18.0,-100.00,North,0,12.0,27.0,94,0.00,,,0.12,0.000000,,2013-02-20 03:32:00,
2013-02-19 22:42:00,19.0,18.0,-100.00,North,0,12.0,27.0,94,0.00,,,0.12,0.000000,,2013-02-20 03:42:00,
2013-02-19 22:52:00,19.0,18.0,-100.00,North,0,12.0,27.0,94,0.00,,,0.12,0.000000,,2013-02-20 03:52:00,
2013-02-19 23:01:00,19.0,18.0,-100.00,North,0,12.0,27.0,94,0.00,,,0.12,0.000000,,2013-02-20 04:01:00,
2013-02-19 23:32:00,18.0,15.0,-100.00,North,0,11.0,23.0,86,0.00,,,0.12,0.000000,,2013-02-20 04:32:00,
2013-02-19 23:42:00,18.0,15.0,-100.00,North,0,11.0,23.0,86,0.00,,,0.12,0.000000,,2013-02-20 04:42:00,
2013-02-19 23:52:00,18.0,15.0,-100.00,North,0,11.0,23.0,86,0.00,,,0.12,0.000000,,2013-02-20 04:52:00,